Temperature
14 15 15 16 16 17 19 21 24 24 24 24 24 24 23 22 22 19 18 18 17 17 18 17 17 17 17 17 17 17 17 17 17 17 16 16 16 16 16 16 16 16 16 16 16 16 16 16 15
14 14 15 16 17 18 20 22 23 24 24 23 23 23 23 21 19 18 17 17 17 17 17 17 17 17 17 17 17 17 17 17 17 16 16 16 16 16 16 16 16 16 16 16 15 15 15 15 15
14 14 16 17 17 19 21 22 22 23 23 23 23 22 22 20 19 17 17 17 17 16 16 17 17 17 17 17 17 17 17 17 16 16 16 16 16 16 16 16 16 16 16 15 15 15 15 15 15
14 14 16 17 18 20 22 22 22 22 22 22 22 21 19 18 18 17 17 17 16 16 16 16 16 17 17 17 17 17 17 16 16 16 16 16 16 16 16 16 16 16 16 15 15 15 15 15 15
14 15 16 16 18 20 22 22 22 22 22 22 21 20 18 17 17 17 17 16 16 16 16 16 16 16 16 16 16 16 16 16 16 16 16 16 16 16 16 15 15 15 15 15 15 15 14 14 14
14 16 16 17 18 20 21 22 22 22 21 22 21 19 17 17 17 16 16 16 16 16 15 16 16 16 16 16 16 16 16 16 16 16 16 16 16 15 15 15 15 15 15 15 14 14 14 14 14
14 15 16 18 18 20 21 22 22 21 21 21 21 19 17 16 16 16 16 16 15 15 15 15 15 16 16 16 16 16 16 16 16 16 15 15 15 15 15 15 15 14 14 14 14 14 14 14 14
14 15 16 18 18 19 21 21 21 21 20 21 20 18 16 15 15 15 15 15 15 15 15 15 15 15 15 15 15 15 15 15 15 15 15 15 15 15 15 14 14 14 14 14 14 14 14 14 13
14 14 15 17 18 19 20 20 20 20 19 19 18 17 16 15 15 15 15 15 15 15 15 15 15 15 15 15 15 15 15 15 15 15 15 15 15 14 14 14 14 14 14 14 13 13 13 13 13
14 13 16 18 19 19 19 19 19 19 18 18 17 16 15 15 15 15 15 15 14 14 14 14 14 14 15 15 15 14 14 15 14 14 14 14 14 14 14 14 13 13 13 13 13 13 13 13 12
14 14 16 17 18 18 18 18 18 18 17 17 16 15 14 14 14 14 14 14 14 14 14 14 14 14 14 14 14 14 14 14 14 14 14 14 14 14 13 13 13 13 13 13 13 13 12 12 12
14 15 16 16 16 17 17 17 17 17 17 16 16 15 14 14 14 14 14 14 14 14 14 13 14 14 14 14 14 14 14 14 14 14 14 14 13 13 13 13 13 12 12 12 12 12 12 12 11
14 14 15 15 16 16 16 16 16 16 16 15 15 14 14 13 14 14 14 14 14 13 13 13 13 14 14 14 14 14 14 14 14 13 13 13 13 13 13 12 12 12 12 12 12 12 11 11 11
14 14 14 15 15 15 15 15 15 15 15 15 14 14 13 13 13 13 13 13 13 13 13 13 13 13 13 14 13 13 13 13 13 13 13 13 13 13 12 12 12 12 12 11 11 11 11 11 11
13 13 13 14 15 15 15 14 14 15 15 14 14 14 13 13 13 13 13 13 13 13 13 13 13 13 13 13 13 13 13 13 13 13 12 12 12 12 12 12 11 11 11 11 11 11 11 11 11
13 12 12 14 14 15 14 12 14 15 14 14 14 13 13 13 12 12 12 12 12 12 12 12 13 13 13 13 13 13 13 13 12 12 12 12 12 12 12 11 11 11 11 11 11 11 11 10 10
11 11 12 13 14 14 13 12 13 14 14 14 14 13 13 12 12 12 12 12 12 12 12 12 12 12 12 12 13 12 12 12 12 12 12 12 12 12 11 11 11 11 11 11 10 10 10 10 10
10 11 12 12 13 13 12 12 13 14 14 14 13 13 12 12 11 11 11 11 11 11 12 12 12 12 12 12 12 12 12 12 12 12 12 12 11 11 11 11 11 11 10 10 10 10 10 10 10
11 11 11 12 14 13 12 12 12 13 13 13 13 13 12 11 11 11 11 11 11 11 11 11 11 11 12 12 12 12 12 12 12 11 11 11 11 11 11 11 10 10 10 10 10 10 10 9 9
11 11 11 12 13 12 12 12 12 12 12 12 13 12 12 11 11 10 10 10 10 10 11 11 11 11 11 11 11 11 11 11 11 11 11 11 11 11 11 11 10 10 10 9 9 9 9 9 9
11 10 10 11 11 12 11 11 11 12 12 12 12 12 11 11 10 10 9 9 10 10 10 10 10 10 10 10 11 11 11 11 10 11 11 11 11 11 11 10 10 10 10 9 9 9 9 8 8
9 11 11 10 10 9 11 9 10 11 11 11 11 11 11 10 10 9 9 9 9 9 9 10 10 10 10 10 10 10 10 10 10 10 10 10 10 10 10 10 10 9 9 9 9 9 8 8 8
9 11 10 10 10 9 10 9 10 11 10 10 10 11 11 10 9 9 8 8 8 8 9 9 9 9 9 9 9 10 10 10 10 10 10 10 10 10 10 10 9 9 9 9 9 8 8 8 7
10 10 10 10 9 8 9 9 9 10 10 10 10 11 10 10 9 9 8 8 8 8 8 8 9 9 9 9 9 9 9 9 9 9 9 9 9 9 9 9 9 9 9 8 8 8 8 8 7
9 8 7 7 7 8 10 10 9 10 10 10 9 10 10 9 9 8 8 7 7 7 8 8 8 8 8 8 9 9 9 9 9 9 9 9 9 9 9 9 9 9 8 8 8 8 7 7 7
8 8 7 7 7 8 10 9 8 9 9 9 9 9 9 9 8 8 8 7 7 7 7 7 7 8 8 8 8 8 8 8 8 8 8 8 8 8 8 8 8 8 8 8 8 7 7 7 7
7 7 8 7 7 7 8 8 8 8 8 8 9 8 8 8 7 7 7 7 7 7 7 7 7 7 7 7 7 7 7 7 7 7 8 8 8 8 8 8 8 8 8 8 7 7 7 7 7
7 7 7 6 6 7 8 8 7 8 8 8 7 7 7 7 6 6 6 6 6 6 6 6 6 6 7 7 7 7 7 7 7 7 7 7 7 7 7 8 8 8 8 7 7 7 6 6 6
6 6 6 6 7 7 7 7 8 7 7 7 7 7 7 6 6 5 5 6 6 6 6 6 6 6 6 6 6 6 6 6 6 7 7 7 7 7 7 7 7 7 7 7 7 7 6 6 6
6 6 6 5 6 6 6 6 7 7 7 7 7 6 6 5 5 5 5 5 5 5 5 5 5 5 5 5 5 5 5 6 6 6 6 6 6 6 7 7 7 7 7 7 7 6 6 6 6
Wind_Speed
9 11 8 3 4 6 11 9 7 3 1 3 5 4 4 4 4 8 4 6 11 13 16 15 15 15 14 14 13 13 12 12 11 11 11 11 10 10 10 10 10 9 9 9 9 9 9 9 9
10 8 5 4 5 8 9 10 8 3 3 5 5 3 3 4 7 8 5 7 11 13 15 14 15 15 14 14 13 13 12 12 11 11 11 10 10 10 10 10 9 9 9 9 9 9 8 8 8
10 8 4 4 6 10 7 5 3 3 5 4 2 2 2 4 6 5 6 7 10 12 15 15 16 15 15 14 14 13 12 12 11 11 10 10 9 9 9 9 9 8 8 8 8 8 8 8 7
5 4 5 7 13 11 8 2 4 5 4 4 3 2 3 5 4 6 7 8 10 11 15 16 16 15 15 14 14 13 12 12 11 11 10 9 9 9 9 9 8 8 8 8 7 7 7 7 7
4 4 7 9 14 11 6 1 4 4 4 5 3 3 4 5 8 8 7 8 9 10 14 16 16 15 14 14 13 13 12 12 11 11 10 9 9 9 9 9 8 8 7 7 7 6 6 6 6
4 5 7 12 12 10 7 3 2 4 4 4 4 3 4 6 7 6 7 7 9 10 12 14 15 15 14 14 14 13 12 11 11 10 10 9 9 9 9 8 8 7 7 7 6 6 6 5 5
6 6 10 12 10 8 5 3 3 3 4 3 2 2 5 5 5 6 7 7 9 9 10 10 12 13 14 14 13 13 12 11 11 10 9 9 9 8 8 8 7 7 6 6 6 5 5 4 4
5 5 9 11 10 8 3 2 2 2 1 1 2 3 5 5 5 6 7 7 8 8 8 8 9 10 11 12 13 12 12 11 10 10 9 9 8 8 7 7 6 6 5 5 5 5 4 3 3
4 6 9 10 8 4 2 1 1 2 1 2 4 5 10 10 7 7 7 6 6 7 6 7 6 7 8 10 11 11 11 10 10 10 9 8 7 7 6 6 5 5 4 4 4 3 3 2 2
5 7 9 7 5 2 1 1 1 1 2 1 5 8 12 9 7 6 7 6 5 6 5 6 6 6 6 7 8 8 8 8 8 8 7 5 6 5 5 5 5 4 3 3 3 2 2 2 1
6 8 7 7 5 3 1 1 2 3 3 3 5 8 9 8 6 5 5 6 5 5 5 5 5 5 4 4 5 5 5 6 6 7 6 5 5 5 5 4 4 3 3 2 1 1 2 2 2
8 8 8 6 4 2 2 2 2 2 1 2 5 7 7 7 6 5 5 5 5 6 5 5 5 5 4 3 3 4 4 3 4 6 6 4 3 2 2 2 2 2 1 1 0 1 2 2 2
9 8 7 5 3 2 2 3 3 3 1 4 5 6 7 5 5 4 4 5 6 5 5 5 4 4 3 3 2 4 3 3 4 5 5 4 3 2 2 2 2 1 1 1 1 1 1 1 2
6 6 6 6 4 3 3 4 4 3 3 4 5 5 5 5 4 4 4 4 5 5 5 4 4 4 4 3 2 3 3 4 4 5 4 5 3 2 1 1 2 1 1 1 1 1 1 1 1
5 5 6 7 6 5 3 5 6 4 4 5 5 5 5 4 4 4 4 5 5 5 5 4 4 4 4 3 2 2 3 4 3 4 4 4 4 2 1 1 1 1 1 1 1 1 2 2 2
6 5 6 6 6 5 5 6 5 5 5 6 6 5 5 4 4 4 4 5 5 5 5 4 3 3 3 3 2 2 3 4 3 4 4 4 4 3 2 1 1 1 2 2 1 1 1 1 2
5 6 6 5 6 5 5 4 4 4 5 4 5 5 5 5 4 4 4 5 5 5 5 4 3 3 3 3 2 3 3 3 3 4 3 3 3 3 2 1 1 2 2 1 1 1 1 1 2
6 6 7 6 6 7 6 5 4 4 4 4 5 5 5 4 4 4 4 5 5 5 5 4 3 3 3 3 2 2 3 2 3 3 3 3 3 2 2 1 1 2 1 0 1 1 2 1 1
6 7 7 6 4 5 6 6 5 4 4 3 4 5 4 4 4 4 5 4 5 5 5 4 4 3 3 2 2 2 2 1 2 2 3 3 3 2 2 1 1 1 1 0 1 1 1 1 1
7 6 5 3 2 4 5 6 5 5 5 5 4 4 5 5 4 4 4 4 3 4 4 4 3 3 3 2 2 1 2 1 2 2 3 3 3 2 1 1 1 1 1 1 1 1 1 1 2
6 5 4 3 2 4 4 5 7 5 4 4 4 4 4 5 5 4 4 3 3 3 3 3 3 3 3 3 2 3 3 2 2 1 1 1 2 2 2 1 1 1 1 1 1 1 1 0 2
5 4 3 3 3 3 5 4 6 7 6 5 4 4 4 5 5 4 4 4 3 3 3 3 3 3 3 3 3 3 2 1 1 1 1 1 2 2 2 1 1 1 1 1 1 1 0 1 1
3 4 5 5 4 3 5 4 4 6 6 6 5 4 4 4 5 5 4 4 3 3 3 2 3 3 3 3 2 2 2 1 1 1 1 1 1 2 2 2 1 1 1 2 2 1 1 1 1
3 2 2 3 2 4 6 5 3 5 6 5 4 4 4 4 5 5 4 4 3 3 3 2 3 2 2 2 2 2 2 2 2 1 1 1 1 1 1 1 1 0 1 2 2 2 1 1 1
2 2 1 2 4 5 4 4 2 2 3 4 5 4 4 4 5 5 5 4 3 3 3 3 3 2 2 2 1 2 2 1 2 1 1 1 1 1 1 0 0 0 0 0 1 1 2 2 2
4 3 2 2 3 1 2 3 1 3 4 4 3 4 4 4 4 5 5 4 3 3 3 3 2 2 2 2 1 1 2 1 1 1 0 1 1 1 1 1 0 0 1 0 0 1 2 2 2
2 3 2 1 2 1 3 3 2 4 4 4 4 5 5 4 4 4 4 4 3 3 3 2 2 2 2 1 2 2 1 2 1 1 1 0 0 0 1 1 1 0 0 0 1 2 2 2 2
2 1 1 1 1 2 3 3 2 4 4 4 4 4 4 4 4 4 3 3 3 3 2 2 2 2 1 2 2 2 2 2 1 1 1 1 1 0 1 1 1 1 1 1 1 2 2 2 2
1 1 2 2 2 1 1 0 2 3 4 4 4 4 4 4 3 3 3 3 3 3 2 3 2 2 2 2 2 2 2 2 1 1 1 1 1 0 1 1 0 1 1 1 1 1 2 2 2
1 2 2 1 2 2 1 1 3 5 5 5 4 4 4 4 4 3 3 3 3 3 3 3 2 2 2 2 2 2 2 2 2 1 1 1 1 0 1 1 1 0 1 1 1 2 1 2 2
Wind_Direction
264 253 242 232 223 228 236 238 244 225 209 30 24 24 15 16 42 109 151 110 109 121 128 133 131 129 126 124 120 116 114 112 109 105 102 99 95 92 89 87 85 81 76 75 74 73 71 68 67
265 247 236 230 228 227 230 227 235 209 101 59 32 23 25 58 73 101 109 105 115 122 128 133 131 128 125 124 120 117 116 114 111 107 105 102 98 93 89 86 83 80 77 75 72 71 70 68 63
260 247 230 222 227 231 231 203 185 110 88 95 80 16 30 57 81 98 113 119 115 117 124 129 130 127 125 124 122 120 118 116 113 109 107 104 101 97 91 87 83 79 77 74 70 70 68 64 59
239 220 240 237 235 236 250 189 107 106 110 121 135 100 81 45 60 98 114 116 114 117 121 128 129 128 126 125 124 123 120 118 115 112 108 105 102 98 91 87 83 79 75 73 70 68 66 61 53
239 226 222 233 240 242 250 277 115 134 147 157 162 136 92 69 80 96 102 103 112 117 121 130 131 130 128 127 126 125 123 121 117 112 108 105 102 97 93 89 84 79 75 72 69 67 66 57 47
224 232 224 226 231 233 229 206 185 175 177 172 161 155 109 91 86 96 101 105 107 113 116 130 132 130 129 128 127 125 123 121 118 114 110 107 106 101 96 90 84 80 76 73 69 64 60 53 41
238 239 238 236 232 231 222 179 190 195 180 177 162 147 130 96 91 102 106 106 100 103 111 120 131 131 131 130 129 127 126 124 123 119 113 110 109 106 100 93 85 80 76 71 66 59 54 46 31
259 264 244 239 235 229 204 198 163 189 184 122 106 136 145 123 114 105 103 100 103 105 109 117 123 129 132 131 131 131 131 129 128 125 120 116 115 110 105 99 91 84 77 71 64 54 45 35 18
260 248 238 234 239 228 143 132 65 37 52 38 48 65 113 121 119 115 109 105 107 113 116 114 114 116 126 133 137 136 137 135 133 131 130 126 120 114 111 108 105 94 84 73 62 47 33 20 354
223 237 241 254 269 277 153 145 143 149 152 109 87 91 110 119 127 129 128 126 119 118 119 118 115 110 116 134 138 142 142 140 134 128 128 121 113 112 112 120 123 107 93 75 54 22 5 349 310
222 242 261 283 306 327 299 219 254 201 200 177 138 123 127 131 135 134 131 130 130 123 111 110 113 109 107 119 135 137 135 137 135 131 130 117 109 108 109 113 114 108 101 79 40 339 320 330 341
237 253 267 279 308 312 300 259 264 275 262 114 131 131 132 142 146 141 130 121 114 109 105 104 105 106 104 103 132 132 127 129 131 135 133 115 105 103 107 110 110 106 94 70 351 279 312 343 349
242 250 262 275 284 297 287 256 252 274 43 80 110 134 144 144 147 139 124 116 109 106 105 104 107 112 105 103 129 133 128 132 132 128 131 116 109 124 117 122 110 92 48 34 308 312 18 3 358
242 254 260 269 253 236 233 251 246 236 148 129 140 153 152 154 147 132 121 112 111 111 107 102 108 108 110 115 119 123 129 130 125 125 130 125 114 111 114 108 109 84 33 4 345 347 20 352 7
240 241 243 242 236 224 212 245 232 208 162 152 160 161 152 149 141 134 129 117 115 113 108 107 110 102 111 115 115 114 130 125 121 127 129 118 111 111 106 112 101 70 34 33 16 27 32 11 7
233 228 232 230 216 212 211 231 211 188 163 174 174 162 156 155 151 134 117 113 113 111 104 102 102 105 104 106 111 108 110 114 120 126 123 118 111 101 78 88 86 65 55 43 40 44 37 7 356
216 224 227 226 205 207 214 232 216 187 173 178 173 157 151 153 149 129 113 112 113 114 110 104 96 98 99 98 93 95 92 105 110 115 112 118 117 107 84 86 63 65 63 48 24 27 28 8 357
213 223 232 230 210 205 210 217 219 181 174 184 169 149 141 146 143 121 108 110 109 108 109 107 101 95 94 83 90 89 95 94 90 102 113 121 115 106 85 89 94 87 85 48 44 34 18 9 350
237 237 240 249 229 204 209 217 218 191 173 187 172 152 150 147 128 110 101 94 96 99 102 104 101 102 101 98 100 124 129 122 103 87 95 112 115 114 98 71 96 105 139 144 90 86 44 7 7
249 251 252 260 241 223 213 229 223 188 182 190 182 163 159 142 130 123 116 108 98 100 104 108 103 112 116 107 105 120 124 129 116 80 81 87 84 92 105 98 125 101 110 73 65 70 64 1 15
245 241 251 263 292 250 222 237 218 196 186 191 172 149 144 142 142 139 123 110 104 101 105 107 104 106 106 100 88 80 73 70 68 84 116 86 90 84 87 95 126 125 139 148 168 144 92 228 322
243 251 255 253 243 230 208 230 215 189 189 192 183 165 156 153 145 142 130 116 101 97 99 102 98 99 97 100 102 114 112 131 164 148 149 121 93 89 88 110 111 138 148 161 183 175 201 171 236
254 266 244 248 255 268 232 225 223 178 189 190 184 172 162 153 144 141 134 125 106 94 94 96 101 90 94 101 114 125 121 113 92 97 101 121 122 104 86 87 92 158 176 176 181 206 215 193 212
272 274 247 241 227 239 227 210 226 186 190 174 174 171 152 143 135 134 125 117 103 97 94 90 101 93 83 95 108 109 108 104 99 92 131 145 133 135 81 65 76 95 189 193 193 195 208 223 239
224 137 134 186 202 228 201 201 215 121 127 140 158 156 139 126 130 132 131 131 122 114 104 91 95 91 83 78 75 98 97 112 141 148 171 161 150 166 194 112 129 157 326 215 172 195 215 217 232
227 190 172 203 212 218 172 201 142 77 86 86 108 114 98 107 120 130 136 135 128 123 116 105 99 93 89 80 54 72 70 65 89 101 136 174 176 186 189 147 115 39 348 336 229 210 218 210 229
231 239 298 294 279 235 198 161 125 90 87 90 93 93 83 76 85 94 106 113 112 120 120 113 110 102 102 93 61 66 69 54 49 41 45 52 62 118 79 150 163 163 226 232 204 220 211 203 218
298 293 340 208 219 243 209 181 168 153 139 115 100 96 87 77 74 82 92 98 99 109 113 109 104 111 101 85 69 47 46 49 55 51 41 21 8 44 132 127 160 164 176 199 199 223 209 213 226
160 212 246 251 244 227 213 14 26 115 123 111 92 88 92 88 83 84 84 88 87 83 101 99 83 73 70 70 62 53 42 33 38 54 24 350 352 115 157 155 178 183 195 219 221 236 217 216 227
260 237 206 198 256 247 224 221 37 70 84 91 87 83 83 83 79 76 76 71 76 77 77 84 84 70 52 56 56 51 45 25 19 25 4 354 24 109 159 142 134 193 218 216 221 246 264 226 221
Height
1492 1495 1497 1501 1503 1501 1494 1481 1472 1471 1472 1474 1476 1477 1480 1485 1490 1502 1503 1502 1502 1503 1505 1508 1510 1513 1515 1517 1519 1520 1522 1523 1525 1526 1527 1527 1528 1529 1530 1530 1530 1531 1531 1531 1531 1532 1532 1532 1532
1491 1495 1499 1499 1499 1499 1488 1477 1473 1471 1473 1476 1478 1480 1483 1488 1492 1497 1499 1502 1503 1503 1505 1508 1510 1513 1515 1517 1519 1521 1522 1524 1525 1526 1527 1528 1529 1529 1530 1530 1531 1531 1531 1531 1532 1532 1532 1532 1532
1491 1495 1497 1494 1492 1489 1479 1471 1470 1472 1474 1478 1482 1484 1487 1492 1494 1497 1499 1501 1503 1504 1505 1508 1510 1513 1515 1517 1519 1521 1522 1524 1525 1526 1527 1528 1529 1530 1530 1530 1531 1531 1531 1531 1531 1532 1532 1532 1532
1492 1495 1494 1491 1485 1476 1471 1469 1469 1472 1476 1480 1483 1487 1491 1495 1495 1497 1499 1501 1503 1504 1506 1508 1511 1513 1515 1517 1519 1521 1523 1524 1525 1526 1527 1528 1529 1530 1530 1530 1531 1531 1531 1531 1531 1531 1531 1532 1532
1491 1492 1491 1488 1480 1472 1468 1469 1470 1474 1477 1480 1483 1487 1492 1495 1496 1497 1500 1502 1503 1505 1506 1509 1511 1513 1515 1517 1519 1521 1523 1524 1525 1527 1528 1528 1529 1530 1530 1530 1531 1531 1531 1531 1531 1531 1531 1531 1531
1490 1487 1487 1484 1476 1470 1468 1469 1471 1474 1477 1480 1483 1487 1493 1495 1496 1498 1500 1502 1504 1505 1506 1509 1511 1513 1515 1517 1519 1521 1523 1524 1525 1526 1527 1528 1529 1529 1530 1530 1530 1530 1530 1530 1530 1530 1530 1530 1530
1488 1484 1481 1476 1474 1470 1467 1469 1472 1474 1477 1480 1482 1487 1492 1494 1496 1498 1500 1502 1504 1505 1506 1508 1511 1513 1515 1517 1519 1521 1522 1524 1525 1526 1527 1528 1529 1529 1530 1530 1530 1530 1530 1530 1530 1530 1530 1530 1530
1484 1482 1477 1473 1471 1469 1467 1469 1472 1475 1477 1480 1482 1486 1490 1494 1495 1498 1500 1502 1504 1505 1506 1508 1510 1512 1515 1517 1519 1520 1522 1524 1525 1526 1527 1528 1528 1529 1529 1529 1529 1529 1529 1529 1529 1529 1529 1529 1529
1483 1484 1477 1471 1469 1468 1467 1470 1473 1476 1478 1481 1483 1485 1487 1491 1495 1497 1500 1502 1504 1505 1507 1508 1510 1512 1514 1516 1518 1520 1521 1523 1524 1525 1526 1527 1528 1528 1528 1529 1529 1529 1529 1529 1529 1528 1528 1528 1528
1481 1480 1472 1468 1466 1467 1469 1471 1474 1477 1479 1482 1484 1486 1488 1491 1494 1497 1499 1501 1503 1504 1506 1508 1509 1511 1513 1515 1517 1519 1520 1522 1523 1524 1525 1526 1527 1527 1528 1528 1528 1528 1528 1528 1528 1528 1528 1528 1527
1476 1474 1470 1468 1468 1469 1471 1474 1476 1478 1480 1482 1484 1486 1488 1491 1494 1497 1499 1500 1502 1504 1505 1507 1509 1511 1512 1514 1516 1518 1519 1521 1522 1524 1525 1525 1526 1526 1527 1527 1527 1527 1527 1527 1527 1527 1527 1527 1527
1473 1471 1471 1470 1470 1471 1473 1475 1477 1478 1480 1482 1483 1485 1488 1491 1493 1496 1498 1500 1502 1503 1504 1506 1508 1509 1511 1513 1515 1517 1518 1520 1521 1522 1523 1524 1525 1525 1526 1526 1526 1526 1526 1526 1526 1526 1526 1526 1526
1471 1471 1471 1472 1472 1472 1474 1475 1477 1479 1480 1481 1483 1485 1488 1490 1493 1495 1497 1499 1500 1502 1503 1505 1506 1508 1510 1511 1513 1515 1517 1518 1520 1521 1522 1523 1524 1524 1525 1525 1525 1525 1525 1525 1525 1525 1525 1525 1525
1470 1471 1471 1472 1472 1473 1475 1476 1477 1479 1480 1482 1483 1485 1487 1490 1492 1494 1496 1498 1499 1500 1502 1504 1505 1507 1509 1510 1512 1513 1515 1517 1519 1520 1521 1522 1522 1523 1523 1524 1524 1524 1524 1524 1524 1524 1524 1524 1524
1470 1471 1472 1471 1471 1472 1475 1477 1477 1478 1479 1481 1483 1485 1487 1489 1491 1493 1495 1496 1498 1499 1501 1502 1504 1506 1507 1509 1511 1512 1514 1516 1517 1518 1520 1520 1521 1522 1522 1522 1523 1523 1523 1523 1523 1523 1523 1523 1523
1469 1471 1474 1469 1469 1471 1476 1480 1476 1477 1478 1480 1482 1484 1486 1488 1490 1492 1494 1495 1497 1498 1499 1501 1502 1504 1506 1507 1509 1511 1512 1514 1516 1517 1518 1519 1519 1520 1521 1521 1521 1522 1522 1522 1522 1522 1522 1521 1521
1469 1472 1472 1469 1467 1469 1474 1477 1475 1475 1476 1478 1480 1482 1485 1487 1490 1491 1493 1494 1495 1496 1498 1499 1501 1502 1504 1506 1508 1509 1511 1513 1514 1515 1516 1517 1518 1519 1519 1519 1520 1520 1520 1520 1521 1520 1520 1520 1520
1471 1469 1468 1468 1466 1468 1472 1475 1474 1474 1476 1477 1479 1481 1484 1486 1488 1490 1491 1492 1494 1495 1496 1497 1499 1500 1502 1504 1506 1507 1509 1511 1513 1514 1515 1516 1516 1517 1517 1518 1518 1519 1519 1519 1519 1519 1519 1519 1518
1465 1467 1468 1467 1463 1467 1471 1473 1473 1473 1475 1476 1478 1480 1483 1485 1487 1489 1489 1491 1492 1493 1494 1495 1497 1498 1500 1501 1503 1505 1507 1509 1510 1512 1513 1514 1515 1516 1516 1516 1517 1517 1517 1517 1517 1517 1517 1517 1516
1465 1467 1468 1467 1464 1467 1470 1471 1471 1471 1473 1475 1476 1479 1481 1484 1485 1487 1488 1489 1490 1491 1492 1494 1495 1496 1498 1499 1501 1503 1505 1507 1508 1510 1511 1512 1513 1514 1514 1514 1514 1515 1515 1515 1516 1516 1515 1515 1515
1465 1468 1468 1469 1468 1467 1470 1473 1471 1470 1471 1474 1475 1477 1480 1482 1483 1485 1487 1488 1489 1489 1490 1492 1493 1495 1496 1498 1499 1501 1503 1504 1506 1507 1509 1510 1511 1511 1512 1512 1512 1513 1513 1513 1514 1514 1514 1514 1515
1468 1465 1466 1469 1473 1474 1471 1479 1471 1468 1470 1472 1474 1476 1478 1480 1482 1484 1485 1486 1487 1488 1489 1491 1492 1493 1495 1496 1497 1498 1500 1502 1503 1505 1506 1508 1508 1509 1510 1510 1510 1511 1511 1511 1512 1512 1513 1513 1513
1466 1464 1466 1468 1471 1474 1470 1475 1470 1465 1469 1471 1472 1474 1476 1478 1480 1482 1483 1484 1486 1487 1488 1489 1490 1492 1493 1494 1495 1497 1498 1500 1502 1503 1504 1505 1506 1507 1507 1508 1508 1509 1509 1509 1510 1510 1511 1511 1511
1466 1466 1466 1468 1473 1480 1469 1472 1470 1467 1466 1468 1470 1472 1474 1477 1479 1480 1482 1483 1484 1485 1486 1487 1489 1490 1491 1493 1494 1495 1496 1498 1499 1500 1501 1502 1503 1504 1505 1506 1506 1507 1507 1507 1508 1508 1509 1509 1509
1468 1473 1479 1480 1481 1476 1463 1467 1469 1463 1463 1465 1468 1470 1473 1475 1477 1479 1480 1482 1483 1484 1485 1486 1487 1488 1489 1491 1492 1493 1495 1496 1497 1498 1499 1500 1501 1501 1502 1503 1504 1504 1505 1505 1506 1506 1506 1507 1507
1469 1471 1479 1481 1478 1470 1463 1468 1468 1464 1464 1465 1467 1470 1472 1474 1476 1477 1479 1480 1482 1482 1483 1484 1485 1486 1488 1489 1490 1491 1493 1494 1495 1496 1497 1497 1498 1499 1500 1501 1501 1502 1503 1503 1503 1504 1504 1504 1504
1471 1471 1468 1475 1473 1475 1468 1467 1468 1465 1466 1467 1468 1470 1472 1474 1475 1477 1478 1479 1481 1482 1482 1483 1484 1485 1486 1487 1488 1489 1490 1491 1492 1493 1494 1495 1496 1496 1497 1498 1499 1499 1500 1500 1501 1501 1501 1501 1502
1472 1471 1475 1477 1478 1474 1467 1466 1471 1468 1468 1468 1470 1471 1473 1474 1476 1477 1478 1479 1480 1480 1481 1482 1483 1484 1484 1485 1486 1487 1488 1489 1490 1491 1492 1492 1493 1494 1494 1495 1496 1496 1497 1497 1498 1498 1499 1499 1499
1475 1476 1476 1476 1474 1477 1476 1477 1467 1467 1468 1469 1471 1472 1474 1475 1476 1477 1477 1478 1479 1479 1480 1480 1481 1482 1483 1483 1484 1485 1486 1487 1487 1488 1489 1490 1490 1491 1491 1492 1493 1493 1494 1494 1495 1495 1495 1496 1496
1474 1474 1476 1481 1479 1474 1476 1481 1469 1469 1469 1470 1472 1473 1474 1475 1476 1476 1477 1477 1477 1478 1479 1479 1480 1481 1481 1482 1482 1483 1484 1484 1485 1486 1486 1487 1487 1488 1489 1489 1490 1490 1491 1491 1492 1492 1492 1492 1493